TimeAKDT,TemperatureF,Dew PointF,Humidity,Sea Level PressureIn,VisibilityMPH,Wind Direction,Wind SpeedMPH,Gust SpeedMPH,PrecipitationIn,Events,Conditions,WindDirDegrees,DateUTC
12:53 AM,39.0,37.0,93,30.25,10.0,North,3.5,-,N/A,,Overcast,10,2013-05-19 08:53:00
1:53 AM,39.9,33.1,77,30.28,10.0,West,12.7,17.3,0.00,Rain,Light Rain,260,2013-05-19 09:53:00
2:06 AM,37.9,33.1,83,30.30,8.0,West,18.4,-,0.00,Rain-Snow,Light Rain,260,2013-05-19 10:06:00
2:20 AM,36.0,30.0,79,30.30,6.0,NW,5.8,25.3,0.02,Rain-Snow,Light Rain,320,2013-05-19 10:20:00
2:53 AM,34.0,30.9,89,30.30,5.0,NE,9.2,-,0.05,Rain-Snow,Light Snow,50,2013-05-19 10:53:00
3:07 AM,35.1,33.1,92,30.31,10.0,Variable,3.5,-,0.00,Snow,Light Snow,0,2013-05-19 11:07:00
3:53 AM,35.1,33.1,92,30.33,10.0,Calm,Calm,-,0.00,,Overcast,0,2013-05-19 11:53:00
4:53 AM,35.1,33.1,92,30.35,10.0,NNE,5.8,-,N/A,,Overcast,20,2013-05-19 12:53:00
5:53 AM,36.0,34.0,93,30.36,10.0,East,3.5,-,N/A,,Overcast,90,2013-05-19 13:53:00
6:53 AM,37.9,35.1,89,30.38,10.0,ENE,6.9,-,N/A,,Mostly Cloudy,60,2013-05-19 14:53:00
7:53 AM,39.9,33.1,77,30.39,10.0,ENE,5.8,-,0.00,,Mostly Cloudy,60,2013-05-19 15:53:00
8:53 AM,41.0,32.0,70,30.41,9.0,Calm,Calm,-,0.00,Rain,Light Rain,0,2013-05-19 16:53:00
9:53 AM,41.0,34.0,76,30.43,10.0,WNW,4.6,-,0.00,Rain,Light Rain,300,2013-05-19 17:53:00
10:24 AM,43.0,33.1,68,30.43,10.0,Variable,3.5,-,0.00,Rain,Light Rain,0,2013-05-19 18:24:00
10:31 AM,42.1,34.0,73,30.44,9.0,WNW,6.9,-,0.00,Rain,Light Rain,290,2013-05-19 18:31:00
10:53 AM,39.9,35.1,83,30.44,8.0,NNE,6.9,-,0.04,Rain,Light Rain,20,2013-05-19 18:53:00
11:53 AM,43.0,35.1,74,30.44,10.0,ESE,13.8,19.6,0.01,,Mostly Cloudy,120,2013-05-19 19:53:00
12:53 PM,42.1,36.0,79,30.45,10.0,ESE,12.7,-,0.00,,Overcast,120,2013-05-19 20:53:00
1:53 PM,42.1,35.1,76,30.47,4.0,WSW,16.1,-,0.00,Rain,Light Rain,250,2013-05-19 21:53:00
2:04 PM,42.1,36.0,79,30.48,7.0,West,13.8,-,0.00,Rain,Light Rain,270,2013-05-19 22:04:00
2:12 PM,42.1,36.0,79,30.48,7.0,WNW,10.4,-,0.00,Rain,Light Rain,300,2013-05-19 22:12:00
2:53 PM,43.0,35.1,74,30.49,10.0,West,8.1,-,0.00,Rain,Light Rain,270,2013-05-19 22:53:00
3:53 PM,41.0,36.0,82,30.48,10.0,ESE,12.7,-,0.00,,Mostly Cloudy,120,2013-05-19 23:53:00
4:53 PM,42.1,37.0,82,30.48,10.0,East,9.2,-,N/A,,Overcast,90,2013-05-20 00:53:00
5:53 PM,41.0,36.0,82,30.48,10.0,ESE,10.4,-,0.00,,Overcast,120,2013-05-20 01:53:00
6:53 PM,39.9,35.1,83,30.48,10.0,ESE,15.0,-,N/A,,Mostly Cloudy,120,2013-05-20 02:53:00
7:53 PM,39.9,35.1,83,30.49,10.0,East,9.2,-,N/A,,Overcast,90,2013-05-20 03:53:00
8:53 PM,39.0,36.0,89,30.49,10.0,ENE,5.8,-,0.01,,Overcast,70,2013-05-20 04:53:00
9:53 PM,37.9,36.0,93,30.50,10.0,ENE,4.6,-,N/A,,Mostly Cloudy,60,2013-05-20 05:53:00
10:27 PM,37.9,35.1,89,30.50,10.0,East,3.5,-,N/A,,Scattered Clouds,80,2013-05-20 06:27:00
10:53 PM,36.0,34.0,93,30.50,10.0,Calm,Calm,-,N/A,,Partly Cloudy,0,2013-05-20 06:53:00
11:53 PM,35.1,34.0,96,30.51,10.0,Calm,Calm,-,N/A,,Scattered Clouds,0,2013-05-20 07:53:00